Weather in Novyy

Russia / Mari El Republic     56°40′16″N   47°49′27″E
temp.,
°C
wind,
m/s
gust,
m/s
humid.,
%
clouds,
%
prec.,
mm/h
press.,
hPa
HPBL,
m
3 march, wed
wed300:00−3w399798 0.2 999357
03:00−3wnw4109698 0.8 999533
06:00−6wnw51292100 0.6 1000562
09:00−4nnw61094100 1.1 1002739
12:00−5nw5988100 0.1 1003705
15:00−5wnw5988100 0.3 1004784
18:00−6wnw4989100 0.1 1004734
21:00−6w41088100 0.2 1005733
4 march, thu
thu400:00−7wsw41095100 0.7 1001457
03:00−5wsw41194100 1.0 999545
06:00−4sw41195100 0.1 996576
09:00−2sw61192100 0.8 994787
12:00−1sw51096100 0.8 990728
15:00−1w6127792 2.6 9901434
18:00−4w5149191 0.2 993783
21:00−4wnw4109495 0.6 996579
5 march, fri
fri500:00−9wnw279493 0.0 998139
03:00−12nw249590 0.0 100082
06:00−16nnw238954 0.0 100251
09:00−13nnw359028 0.0 1004246
12:00−9nw36851 0.0 1005501
15:00−8nw37866 0.0 1007653
18:00−11w239593 0.0 100836
21:00−12wsw339579 0.0 101078
6 march, sat
sat600:00−14wsw339729 0.0 101180
03:00−14wsw239857 0.1 101146
06:00−13sw239798 0.1 101176
09:00−11sw239599 0.2 1011192
12:00−7wnw1288100 0.3 1011458
15:00−8nw3489100 0.5 1010509
18:00−13nw389278 0.0 1010199
21:00−18nw339443 0.0 101165
7 march, sun
sun700:00−19w23980 0.0 101133
03:00−19wsw239943 0.0 101147
06:00−20sw259999 0.1 1010113
09:00−15ssw369698 0.1 1008259
12:00−10s61189100 0.0 1005621
15:00−9ssw71292100 0.8 10011067
18:00−8s61392100 1.0 9981014
21:00−7s61393100 1.7 995831